{"data":{"norad_id":59424,"intl_designator":"2024-065D","name":"STARLINK-11083 [DTC]","alt_names":[],"object_type":"PAYLOAD","status":"ACTIVE","operator":null,"country":"US","launch_date":"2024-04-07","launch_site_code":"AFWTR","launch_vehicle":null,"mission":null,"orbit_class":"UNKNOWN","rcs_meters":null,"size_class":null,"mass_kg":null,"dimensions":null,"purposes":["comms"],"wikipedia_slug":null,"has_3d_model":false,"image_url":null,"decayed_at":null,"tle_current":{"epoch":"2026-09-21T13:07:35.337792Z","epoch_age_seconds":74910,"freshness":"FRESH","line1":"1 59424U 24065D   26264.54693678 -.00000261  00000+0  27054-5 0  9991","line2":"2 59424  53.1591 208.4562 0000910 106.4702 253.6416 15.69707605142232","mean_motion":15.69707605,"eccentricity":9.1e-5,"inclination_deg":53.1591,"raan_deg":208.4562,"arg_perigee_deg":106.4702,"mean_anomaly_deg":253.6416,"bstar":2.7054e-6,"rev_number":14223,"period_min":91.736830185008,"perigee_km":359.12045777677,"apogee_km":360.3467502267,"semimajor_km":6737.8706040017,"source":"CELESTRAK","updated_at":"2026-09-22T09:00:48.939027Z"}}}